KH6DH-13 Weather Reports


time (UTC)temp
C
wind
direction
speed
KPH
gust
KPH
rain 1hr
cm
rain 24hr
cm
rain mn
cm
humidity
%
barometer
mb
20260507151800 22 52 4.8 9.7 0.00 0.00 0.00
20260507150759 23 87 4.8 9.7 0.00 0.00 0.00
20260507145758 23 60 4.8 11.3 0.00 0.00 0.00
20260507143723 23 53 6.4 9.7 0.00 0.00 0.00
20260507142722 23 89 6.4 8.0 0.00 0.00 0.00
20260507141721 23 41 4.8 8.0 0.00 0.00 0.00
20260507140720 23 103 3.2 9.7 0.00 0.00 0.00
20260507135719 23 46 4.8 11.3 0.00 0.00 0.00
20260507134718 23 87 6.4 9.7 0.00 0.00 0.00
20260507133717 23 68 4.8 8.0 0.00 0.00 0.00
20260507130657 23 51 4.8 9.7 0.00 0.00 0.00
20260507125656 23 91 4.8 8.0 0.00 0.00 0.00
20260507124655 23 90 6.4 8.0 0.00 0.00 0.00
20260507123654 23 79 3.2 9.7 0.00 0.00 0.00
20260507122653 23 14 4.8 6.4 0.00 0.00 0.00
20260507121652 23 46 3.2 8.0 0.00 0.00 0.00
20260507120651 23 37 4.8 11.3 0.00 0.00 0.00
20260507115650 23 66 1.6 6.4 0.00 0.00 0.00
20260507114649 23 101 3.2 6.4 0.00 0.00 0.00
20260507113648 23 45 4.8 8.0 0.00 0.00 0.00
20260507112647 23 18 4.8 9.7 0.00 0.00 0.00
20260507111646 23 55 3.2 8.0 0.00 0.00 0.00
20260507110645 23 46 4.8 8.0 0.00 0.00 0.00
20260507105644 23 48 1.6 11.3 0.00 0.00 0.00
20260507104641 23 87 6.4 8.0 0.00 0.00 0.00
20260507103640 23 62 6.4 8.0 0.00 0.00 0.00
20260507102639 23 93 4.8 9.7 0.00 0.00 0.00
20260507101638 23 10 1.6 6.4 0.00 0.00 0.00
20260507100637 23 90 6.4 11.3 0.00 0.00 0.00
20260507095636 24 65 6.4 8.0 0.00 0.00 0.00
20260507094633 23 76 4.8 6.4 0.00 0.00 0.00
20260507093632 23 103 3.2 6.4 0.00 0.00 0.00
20260507092631 23 39 6.4 8.0 0.00 0.00 0.00
20260507091630 23 7 4.8 9.7 0.00 0.00 0.00
20260507090629 23 42 4.8 9.7 0.00 0.00 0.00
20260507085628 23 122 4.8 11.3 0.00 0.00 0.00
20260507084627 24 101 4.8 9.7 0.00 0.00 0.00
20260507083626 24 93 6.4 9.7 0.00 0.00 0.00
20260507082625 23 104 6.4 11.3 0.00 0.00 0.00
20260507081624 24 87 6.4 9.7 0.00 0.00 0.00
20260507080623 23 84 4.8 11.3 0.00 0.00 0.00
20260507075622 24 100 3.2 9.7 0.00 0.00 0.00
20260507074621 24 104 8.0 11.3 0.00 0.00 0.00
20260507073620 24 113 3.2 6.4 0.00 0.00 0.00
20260507072619 24 93 4.8 11.3 0.00 0.00 0.00
20260507071618 24 70 8.0 11.3 0.00 0.00 0.00
20260507070617 25 56 8.0 9.7 0.00 0.00 0.00
20260507065616 24 49 6.4 11.3 0.00 0.00 0.00
20260507064615 25 66 3.2 8.0 0.00 0.00 0.00
20260507063614 24 55 6.4 11.3 0.00 0.00 0.00
20260507062613 24 80 3.2 9.7 0.00 0.00 0.00
20260507061612 24 98 1.6 8.0 0.00 0.00 0.00
20260507060611 25 60 3.2 11.3 0.00 0.00 0.00
20260507055610 25 49 3.2 12.9 0.00 0.00 0.00
20260507054609 24 18 6.4 12.9 0.00 0.00 0.00
20260507053608 24 96 3.2 8.0 0.00 0.00 0.00
20260507052607 24 65 4.8 14.5 0.00 0.00 0.00
20260507051602 25 59 3.2 12.9 0.00 0.00 0.00
20260507050601 25 18 4.8 11.3 0.00 0.00 0.00
20260507045600 25 62 6.4 14.5 0.00 0.00 0.00
20260507044559 25 56 6.4 14.5 0.00 0.00 0.00
20260507043558 25 73 9.7 14.5 0.00 0.00 0.00
20260507042557 25 31 8.0 16.1 0.00 0.00 0.00
20260507041556 25 65 6.4 16.1 0.00 0.00 0.00
20260507040555 25 49 4.8 16.1 0.00 0.00 0.00
20260507035554 25 134 3.2 12.9 0.00 0.00 0.00
20260507034553 25 100 4.8 14.5 0.00 0.00 0.00
20260507033549 25 38 6.4 11.3 0.00 0.00 0.00
20260507032548 25 48 6.4 12.9 0.00 0.00 0.00
20260507031547 25 49 6.4 16.1 0.00 0.00 0.00
20260507030546 25 72 4.8 12.9 0.00 0.00 0.00
20260507025545 26 77 6.4 12.9 0.00 0.00 0.00
20260507024544 26 77 4.8 20.9 0.00 0.00 0.00
20260507023543 26 11 6.4 17.7 0.00 0.00 0.00
20260507022542 26 108 4.8 12.9 0.00 0.00 0.00
20260507021541 26 96 4.8 12.9 0.00 0.00 0.00
20260507020540 26 79 4.8 9.7 0.00 0.00 0.00
20260507015539 27 34 3.2 9.7 0.00 0.00 0.00
20260507014538 27 68 3.2 11.3 0.00 0.00 0.00
20260507013537 27 49 4.8 14.5 0.00 0.00 0.00
20260507012536 27 101 3.2 14.5 0.00 0.00 0.00
20260507011535 27 13 3.2 11.3 0.00 0.00 0.00
20260507010534 27 51 3.2 9.7 0.00 0.00 0.00
20260507005533 27 125 4.8 14.5 0.00 0.00 0.00
20260507004532 27 72 3.2 12.9 0.00 0.00 0.00
20260507003531 27 11 4.8 11.3 0.00 0.00 0.00
20260507002530 27 79 6.4 11.3 0.00 0.00 0.00
20260507001529 27 149 3.2 8.0 0.00 0.00 0.00
20260507000528 27 359 3.2 11.3 0.00 0.00 0.00
20260506235527 27 28 3.2 8.0 0.00 0.00 0.00
20260506234526 27 72 8.0 8.0 0.00 0.00 0.00
20260506233525 27 132 4.8 9.7 0.00 0.00 0.00
20260506232521 28 65 4.8 6.4 0.00 0.00 0.00
20260506231520 28 156 4.8 11.3 0.00 0.00 0.00
20260506230519 28 7 6.4 12.9 0.00 0.00 0.00
20260506225518 28 186 1.6 12.9 0.00 0.00 0.00
20260506224517 28 297 6.4 9.7 0.00 0.00 0.00
20260506223516 28 98 8.0 24.1 0.00 0.00 0.00
20260506222515 28 6 4.8 12.9 0.00 0.00 0.00
20260506221514 28 4 4.8 11.3 0.00 0.00 0.00
20260506220511 28 113 3.2 12.9 0.00 0.00 0.00
20260506215510 28 340 1.6 12.9 0.00 0.00 0.00
20260506214509 27 8 1.6 9.7 0.00 0.00 0.00
20260506213508 27 353 1.6 9.7 0.00 0.00 0.00
20260506212507 27 27 4.8 11.3 0.00 0.00 0.00
20260506211502 27 108 3.2 11.3 0.00 0.00 0.00
20260506210501 27 155 6.4 12.9 0.00 0.00 0.00
20260506205500 27 98 6.4 14.5 0.00 0.00 0.00
20260506204459 27 214 1.6 12.9 0.00 0.00 0.00
20260506203458 27 146 3.2 11.3 0.00 0.00 0.00
20260506202457 27 76 3.2 11.3 0.00 0.00 0.00
20260506201456 27 96 4.8 11.3 0.00 0.00 0.00
20260506200455 26 338 3.2 8.0 0.00 0.00 0.00
20260506195454 26 32 4.8 9.7 0.00 0.00 0.00
20260506194453 26 35 3.2 9.7 0.00 0.00 0.00
20260506193452 26 229 1.6 9.7 0.00 0.00 0.00
20260506192451 25 30 0.0 8.0 0.00 0.00 0.00
20260506191450 26 21 0.0 6.4 0.00 0.00 0.00
20260506190449 25 3 0.0 8.0 0.00 0.00 0.00
20260506185448 25 15 0.0 8.0 0.00 0.00 0.00
20260506184447 25 31 3.2 11.3 0.00 0.00 0.00
20260506183446 25 3 4.8 3.2 0.00 0.00 0.00
20260506182445 24 41 0.0 3.2 0.00 0.00 0.00
20260506181444 24 304 0.0 3.2 0.00 0.00 0.00
20260506180443 24 274 0.0 9.7 0.00 0.00 0.00
20260506175442 24 107 1.6 4.8 0.00 0.00 0.00
20260506174441 23 125 3.2 6.4 0.00 0.00 0.00
20260506173440 23 86 4.8 4.8 0.00 0.00 0.00
20260506172439 23 79 0.0 0.0 0.00 0.00 0.00
20260506171438 23 53 0.0 0.0 0.00 0.00 0.00
20260506170437 23 53 0.0 0.0 0.00 0.00 0.00
20260506165436 23 53 0.0 0.0 0.00 0.00 0.00
20260506164435 23 53 0.0 1.6 0.00 0.00 0.00
20260506163434 23 52 0.0 3.2 0.00 0.00 0.00
20260506162433 23 96 0.0 0.0 0.00 0.00 0.00
20260506161432 23 59 0.0 1.6 0.00 0.00 0.00
20260506160431 22 83 0.0 3.2 0.00 0.00 0.00
20260506155430 23 96 1.6 4.8 0.00 0.00 0.00
20260506154429 23 70 3.2 4.8 0.00 0.00 0.00
20260506153428 22 104 1.6 6.4 0.00 0.00 0.00
20260506152427 22 233 0.0 3.2 0.00 0.00 0.00